﻿_id,日時,平均風速(m/s),平均風向,最大瞬間風速(m/s),最大風速時風向,気温(℃),湿度(%),10分間移動積算雨量(mm),1時間移動積算雨量(mm),日雨量(mm),累計雨量(mm)
1,2021-05-03T00:00:00,1.3,南,2,南南西,8.3,94.3,0,0,2.5,4
2,2021-05-03T00:01:00,1.3,南,2,南南西,8.2,94.2,0,0,0,4
3,2021-05-03T00:02:00,1.3,南,2,南南西,8.2,94,0,0,0,4
4,2021-05-03T00:03:00,1.4,南南西,2,南南西,8.2,94.1,0,0,0,4
5,2021-05-03T00:04:00,1.4,南,2,南南西,8.2,94.2,0,0,0,4
6,2021-05-03T00:05:00,1.4,南,2,南南西,8.2,94.3,0,0,0,4
7,2021-05-03T00:06:00,1.3,南,2,南南西,8.2,94.3,0,0,0,4
8,2021-05-03T00:07:00,1.2,南,1.9,南,8.2,94.3,0,0,0,4
9,2021-05-03T00:08:00,1.1,南,1.9,南,8.3,94.5,0,0,0,4
10,2021-05-03T00:09:00,1,南,1.9,南,8.4,94.9,0,0,0,4
11,2021-05-03T00:10:00,1,南南東,1.9,南,8.5,95.1,0,0,0,4
12,2021-05-03T00:11:00,0.9,南東,1.9,南,8.5,94.8,0,0,0,4
13,2021-05-03T00:12:00,0.7,南東,1.9,南,8.5,94.5,0,0,0,4
14,2021-05-03T00:13:00,0.6,東南東,1.8,南,8.4,94.3,0,0,0,4
15,2021-05-03T00:14:00,0.4,東南東,1.5,南,8.4,94.1,0,0,0,4
16,2021-05-03T00:15:00,0.3,東南東,1.2,南,8.3,94,0,0,0,4
17,2021-05-03T00:16:00,0.3,東南東,0.8,南南西,8.3,94,0,0,0,4
18,2021-05-03T00:17:00,0.4,東南東,1.2,南南西,8.3,93.9,0,0,0,4
19,2021-05-03T00:18:00,0.4,南東,1.2,南南西,8.2,94,0,0,0,4
20,2021-05-03T00:19:00,0.5,南南東,1.2,南南西,8.2,94,0,0,0,4
21,2021-05-03T00:20:00,0.5,南南東,1.2,南南西,8.3,94.1,0,0,0,4
22,2021-05-03T00:21:00,0.5,南南東,1.2,南南西,8.3,94.3,0,0,0,4
23,2021-05-03T00:22:00,0.6,南南東,1.2,南南西,8.3,94.2,0,0,0,4
24,2021-05-03T00:23:00,0.6,南南東,1.2,南南西,8.2,94.1,0,0,0,4
25,2021-05-03T00:24:00,0.7,南南東,1.2,南南西,8.2,94,0,0,0,4
26,2021-05-03T00:25:00,0.8,南南東,1.2,南南西,8.2,94,0,0,0,4
27,2021-05-03T00:26:00,0.8,南南東,1.2,南南西,8.2,94.2,0,0,0,4
28,2021-05-03T00:27:00,0.8,南南東,1.6,南,8.2,94.3,0,0,0,4
29,2021-05-03T00:28:00,0.9,南南東,1.6,南,8.2,94.3,0,0,0,4
30,2021-05-03T00:29:00,1,南南東,1.6,南,8.2,94.3,0,0,0,4
31,2021-05-03T00:30:00,1,南,1.6,南,8.2,94.4,0,0,0,4
32,2021-05-03T00:31:00,1.1,南,1.6,南,8.2,94.4,0,0,0,4
33,2021-05-03T00:32:00,1.1,南,1.6,南,8.2,94.4,0,0,0,4
34,2021-05-03T00:33:00,1.1,南,1.6,南,8.2,94.5,0,0,0,4
35,2021-05-03T00:34:00,1.1,南,1.6,南,8.2,94.6,0,0,0,4
36,2021-05-03T00:35:00,1.1,南,1.6,南,8.2,94.7,0,0,0,4
37,2021-05-03T00:36:00,1,南南東,1.6,南,8.2,94.7,0,0,0,4
38,2021-05-03T00:37:00,1,南南東,1.5,南南東,8.2,94.7,0,0,0,4
39,2021-05-03T00:38:00,0.9,南南東,1.5,南南東,8.2,94.7,0,0,0,4
40,2021-05-03T00:39:00,0.8,南南東,1.4,南東,8.2,94.7,0,0,0,4
41,2021-05-03T00:40:00,0.8,南南東,1.4,南東,8.2,94.8,0,0,0,4
42,2021-05-03T00:41:00,0.8,南,1.4,南東,8.2,94.8,0,0,0,4
43,2021-05-03T00:42:00,0.7,南,1.3,南,8.2,94.8,0,0,0,4
44,2021-05-03T00:43:00,0.7,南,1,南,8.1,94.8,0,0,0,4
45,2021-05-03T00:44:00,0.7,南,1,南,8.1,94.7,0,0,0,4
46,2021-05-03T00:45:00,0.7,南,1,南,8.1,94.8,0,0,0,4
47,2021-05-03T00:46:00,0.7,南,1.3,南南西,8.1,94.7,0,0,0,4
48,2021-05-03T00:47:00,0.8,南南西,1.3,南南西,8,94.8,0,0,0,4
49,2021-05-03T00:48:00,0.9,南南西,1.6,南西,8,94.8,0,0,0,4
50,2021-05-03T00:49:00,1,南南西,2,南西,8,94.8,0,0,0,4
51,2021-05-03T00:50:00,1.1,南南西,2.3,南西,7.9,94.8,0,0,0,4
52,2021-05-03T00:51:00,1.3,南西,2.7,南西,7.9,94.8,0,0,0,4
53,2021-05-03T00:52:00,1.4,南西,2.7,南西,7.9,95.1,0,0,0,4
54,2021-05-03T00:53:00,1.6,南西,2.7,南西,7.9,95,0,0,0,4
55,2021-05-03T00:54:00,1.7,南西,2.7,南西,7.9,95.4,0,0,0,4
56,2021-05-03T00:55:00,1.8,南西,2.7,南西,8,95.4,0,0,0,4
57,2021-05-03T00:56:00,1.9,南西,2.7,南西,8,95.5,0,0,0,4
58,2021-05-03T00:57:00,1.9,南西,2.7,南西,7.9,95.4,0,0,0,4
59,2021-05-03T00:58:00,1.9,南西,2.7,南西,7.9,95.2,0,0,0,4
60,2021-05-03T00:59:00,1.8,南西,2.7,南西,7.9,95.4,0,0,0,4
61,2021-05-03T01:00:00,1.7,南西,2.7,南西,8,95.5,0,0,0,4
62,2021-05-03T01:01:00,1.6,南南西,2.6,南西,7.9,95.5,0,0,0,4
63,2021-05-03T01:02:00,1.5,南南西,2.5,南西,7.9,95.4,0,0,0,4
64,2021-05-03T01:03:00,1.3,南南西,2.3,南西,7.9,95.5,0,0,0,4
65,2021-05-03T01:04:00,1.2,南南西,2.2,南西,7.9,95.5,0,0,0,4
66,2021-05-03T01:05:00,1.1,南南西,1.8,南西,7.9,95.5,0,0,0,4
67,2021-05-03T01:06:00,1.1,南,1.6,南南西,7.9,95.6,0,0,0,4
68,2021-05-03T01:07:00,1.1,南,1.6,南,8,95.6,0,0,0,4
69,2021-05-03T01:08:00,1.1,南,1.6,南,8,95.7,0,0,0,4
70,2021-05-03T01:09:00,1.1,南,1.6,南,8,95.7,0,0,0,4
71,2021-05-03T01:10:00,1.1,南,1.6,南,8,95.6,0,0,0,4
72,2021-05-03T01:11:00,1.2,南,1.6,南,8,95.6,0,0,0,4
73,2021-05-03T01:12:00,1.2,南,1.6,南,8,95.7,0,0,0,4
74,2021-05-03T01:13:00,1.2,南,1.9,南南西,8,95.6,0,0,0,4
75,2021-05-03T01:14:00,1.3,南,1.9,南南西,7.8,95.3,0,0,0,4
76,2021-05-03T01:15:00,1.3,南,1.9,南南西,7.7,95.3,0,0,0,4
77,2021-05-03T01:16:00,1.4,南南西,1.9,南南西,7.7,95.4,0,0,0,4
78,2021-05-03T01:17:00,1.4,南南西,1.9,南南西,7.7,95.5,0,0,0,4
79,2021-05-03T01:18:00,1.4,南南西,1.9,南南西,7.7,95.6,0,0,0,4
80,2021-05-03T01:19:00,1.4,南南西,1.9,南南西,7.8,95.7,0,0,0,4
81,2021-05-03T01:20:00,1.4,南南西,1.9,南南西,7.7,95.7,0,0,0,4
82,2021-05-03T01:21:00,1.4,南南西,1.9,南南西,7.7,95.7,0,0,0,4
83,2021-05-03T01:22:00,1.4,南南西,1.9,南南西,7.7,95.7,0,0,0,4
84,2021-05-03T01:23:00,1.3,南南西,1.7,南,7.7,95.7,0,0,0,4
85,2021-05-03T01:24:00,1.3,南南西,1.7,南,7.7,95.7,0,0,0,4
86,2021-05-03T01:25:00,1.3,南南西,1.7,南,7.7,95.7,0,0,0,4
87,2021-05-03T01:26:00,1.3,南南西,1.6,南南西,7.7,95.8,0,0,0,4
88,2021-05-03T01:27:00,1.3,南南西,1.6,南南西,7.7,95.9,0,0,0,4
89,2021-05-03T01:28:00,1.3,南南西,1.6,南南西,7.8,95.9,0,0,0,4
90,2021-05-03T01:29:00,1.3,南南西,1.6,南南西,7.8,95.9,0,0,0,4
91,2021-05-03T01:30:00,1.4,南南西,1.8,南西,7.7,95.9,0,0,0,4
92,2021-05-03T01:31:00,1.4,南南西,2,南南西,7.7,95.8,0,0,0,4
93,2021-05-03T01:32:00,1.5,南南西,2,南南西,7.7,95.8,0,0,0,4
94,2021-05-03T01:33:00,1.6,南南西,2.1,南南西,7.7,95.9,0,0,0,4
95,2021-05-03T01:34:00,1.6,南南西,2.1,南南西,7.6,95.9,0,0,0,4
96,2021-05-03T01:35:00,1.7,南南西,2.1,南南西,7.7,95.9,0,0,0,4
97,2021-05-03T01:36:00,1.7,南西,2.1,南南西,7.7,95.9,0,0,0,4
98,2021-05-03T01:37:00,1.8,南西,2.1,南南西,7.7,96.1,0,0,0,4
99,2021-05-03T01:38:00,1.8,南西,2.2,南西,7.8,96.1,0,0,0,4
100,2021-05-03T01:39:00,1.8,南西,2.2,南西,7.8,96.1,0,0,0,4
101,2021-05-03T01:40:00,1.9,南西,2.4,南西,7.9,96.1,0,0,0,4
102,2021-05-03T01:41:00,1.9,南西,2.4,南西,7.9,96,0,0,0,4
103,2021-05-03T01:42:00,1.9,南西,2.4,南西,7.9,96,0,0,0,4
104,2021-05-03T01:43:00,1.9,南西,2.4,南西,7.9,96,0,0,0,4
105,2021-05-03T01:44:00,1.8,南西,2.4,南西,7.9,96.1,0,0,0,4
106,2021-05-03T01:45:00,1.8,南西,2.4,南西,7.9,96,0,0,0,4
107,2021-05-03T01:46:00,1.7,南南西,2.4,南西,7.9,95.9,0,0,0,4
108,2021-05-03T01:47:00,1.7,南南西,2.4,南西,7.9,95.9,0,0,0,4
109,2021-05-03T01:48:00,1.6,南南西,2.4,南西,7.9,95.9,0,0,0,4
110,2021-05-03T01:49:00,1.6,南南西,2.4,南西,7.9,95.8,0,0,0,4
111,2021-05-03T01:50:00,1.5,南南西,2.3,南西,7.8,95.7,0,0,0,4
112,2021-05-03T01:51:00,1.5,南南西,2.1,南南西,7.8,95.6,0,0,0,4
113,2021-05-03T01:52:00,1.5,南南西,2,南南西,7.7,95.6,0,0,0,4
114,2021-05-03T01:53:00,1.4,南南西,1.9,南,7.8,95.7,0,0,0,4
115,2021-05-03T01:54:00,1.4,南南西,1.9,南,7.7,95.7,0,0,0,4
116,2021-05-03T01:55:00,1.4,南南西,1.9,南,7.7,95.7,0,0,0,4
117,2021-05-03T01:56:00,1.4,南南西,1.9,南,7.7,95.7,0,0,0,4
118,2021-05-03T01:57:00,1.4,南南西,1.9,南,7.7,95.7,0,0,0,4
119,2021-05-03T01:58:00,1.4,南,1.9,南,7.7,95.7,0,0,0,4
120,2021-05-03T01:59:00,1.4,南,1.9,南,7.7,95.7,0,0,0,4
121,2021-05-03T02:00:00,1.4,南,2,南南西,7.6,95.6,0,0,0,4
122,2021-05-03T02:01:00,1.5,南南西,2.2,南南西,7.7,95.7,0,0,0,4
123,2021-05-03T02:02:00,1.5,南南西,2.2,南南西,7.7,95.8,0,0,0,4
124,2021-05-03T02:03:00,1.6,南南西,2.2,南南西,7.7,95.9,0,0,0,4
125,2021-05-03T02:04:00,1.6,南南西,2.4,南南西,7.7,95.8,0,0,0,4
126,2021-05-03T02:05:00,1.7,南南西,2.5,南南西,7.6,95.7,0,0,0,4
127,2021-05-03T02:06:00,1.9,南南西,2.6,南南西,7.6,95.8,0,0,0,4
128,2021-05-03T02:07:00,1.9,南南西,2.6,南南西,7.6,95.8,0,0,0,4
129,2021-05-03T02:08:00,2.1,南南西,2.8,南南西,7.6,95.9,0,0,0,4
130,2021-05-03T02:09:00,2.1,南南西,2.8,南南西,7.7,95.9,0,0,0,4
131,2021-05-03T02:10:00,2.1,南南西,2.8,南南西,7.6,95.9,0,0,0,4
132,2021-05-03T02:11:00,2.1,南南西,2.8,南南西,7.6,95.8,0,0,0,4
133,2021-05-03T02:12:00,2.1,南南西,2.8,南南西,7.5,95.7,0,0,0,4
134,2021-05-03T02:13:00,2.1,南南西,2.8,南南西,7.4,95.7,0,0,0,4
135,2021-05-03T02:14:00,2.1,南南西,2.8,南南西,7.4,95.8,0,0,0,4
136,2021-05-03T02:15:00,2.1,南南西,2.8,南南西,7.4,95.8,0,0,0,4
137,2021-05-03T02:16:00,2.1,南南西,2.8,南南西,7.4,95.9,0,0,0,4
138,2021-05-03T02:17:00,2.1,南南西,2.8,南南西,7.4,95.9,0,0,0,4
139,2021-05-03T02:18:00,2.1,南南西,2.7,南南西,7.4,95.9,0,0,0,4
140,2021-05-03T02:19:00,2.1,南南西,2.7,南南西,7.3,95.8,0,0,0,4
141,2021-05-03T02:20:00,2.2,南南西,2.7,南南西,7.3,95.9,0,0,0,4
142,2021-05-03T02:21:00,2.2,南南西,2.7,南南西,7.3,96,0,0,0,4
143,2021-05-03T02:22:00,2.2,南南西,2.7,南南西,7.3,96.1,0,0,0,4
144,2021-05-03T02:23:00,2.1,南南西,2.7,南南西,7.3,96.1,0,0,0,4
145,2021-05-03T02:24:00,2.1,南南西,2.7,南南西,7.3,96.1,0,0,0,4
146,2021-05-03T02:25:00,2,南南西,2.7,南南西,7.3,96.1,0,0,0,4
147,2021-05-03T02:26:00,1.9,南南西,2.7,南南西,7.2,96.1,0,0,0,4
148,2021-05-03T02:27:00,1.8,南南西,2.7,南南西,7.3,96.1,0,0,0,4
149,2021-05-03T02:28:00,1.7,南南西,2.4,南南西,7.2,96.2,0,0,0,4
150,2021-05-03T02:29:00,1.7,南,2.2,南,7.2,96.2,0,0,0,4
151,2021-05-03T02:30:00,1.6,南南西,2.2,南,7.3,96.2,0,0,0,4
152,2021-05-03T02:31:00,1.6,南南西,2.2,南,7.3,96.3,0,0,0,4
153,2021-05-03T02:32:00,1.6,南南西,2,南,7.2,96.3,0,0,0,4
154,2021-05-03T02:33:00,1.5,南南西,1.9,南南西,7.2,96.2,0,0,0,4
155,2021-05-03T02:34:00,1.5,南南西,1.9,南南西,7.2,96.3,0,0,0,4
156,2021-05-03T02:35:00,1.5,南,1.8,南南西,7.2,96.3,0,0,0,4
157,2021-05-03T02:36:00,1.5,南,1.8,南南西,7.2,96.3,0,0,0,4
158,2021-05-03T02:37:00,1.5,南,1.8,南南西,7.2,96.4,0,0,0,4
159,2021-05-03T02:38:00,1.5,南,1.8,南南西,7.2,96.4,0,0,0,4
160,2021-05-03T02:39:00,1.5,南,2.1,南,7.2,96.4,0,0,0,4
161,2021-05-03T02:40:00,1.6,南,2.3,南,7.1,96.3,0,0,0,4
162,2021-05-03T02:41:00,1.6,南,2.3,南,7,96.2,0,0,0,4
163,2021-05-03T02:42:00,1.6,南,2.3,南,7,96.2,0,0,0,4
164,2021-05-03T02:43:00,1.7,南,2.3,南,7,96.3,0,0,0,4
165,2021-05-03T02:44:00,1.7,南,2.3,南,7,96.4,0,0,0,4
166,2021-05-03T02:45:00,1.8,南,2.4,南,7,96.4,0,0,0,4
167,2021-05-03T02:46:00,1.8,南,2.4,南,7,96.4,0,0,0,4
168,2021-05-03T02:47:00,1.9,南,2.4,南,7,96.5,0,0,0,4
169,2021-05-03T02:48:00,1.9,南,2.4,南,6.9,96.4,0,0,0,4
170,2021-05-03T02:49:00,1.9,南,2.4,南,7,96.4,0,0,0,4
171,2021-05-03T02:50:00,1.9,南,2.4,南,7,96.5,0,0,0,4
172,2021-05-03T02:51:00,1.8,南,2.4,南,6.9,96.5,0,0,0,4
173,2021-05-03T02:52:00,1.7,南,2.4,南,7,96.5,0,0,0,4
174,2021-05-03T02:53:00,1.7,南,2.4,南,6.9,96.5,0,0,0,4
175,2021-05-03T02:54:00,1.6,南,2.4,南,6.9,96.5,0,0,0,4
176,2021-05-03T02:55:00,1.5,南,2.2,南南西,6.9,96.5,0,0,0,4
177,2021-05-03T02:56:00,1.5,南,2.1,南南西,6.9,96.5,0,0,0,4
178,2021-05-03T02:57:00,1.5,南南東,2,南南東,6.9,96.6,0,0,0,4
179,2021-05-03T02:58:00,1.5,南南東,2,南南東,6.9,96.6,0,0,0,4
180,2021-05-03T02:59:00,1.5,南南東,2,南南東,6.9,96.6,0,0,0,4
181,2021-05-03T03:00:00,1.4,南南東,2,南南東,6.9,96.5,0,0,0,4
182,2021-05-03T03:01:00,1.4,南南東,2,南南東,6.9,96.6,0,0,0,4
183,2021-05-03T03:02:00,1.5,南南東,2,南南東,6.9,96.6,0,0,0,4
184,2021-05-03T03:03:00,1.4,南南東,2,南南東,6.9,96.6,0,0,0,4
185,2021-05-03T03:04:00,1.4,南南東,2,南南東,6.9,96.6,0,0,0,4
186,2021-05-03T03:05:00,1.4,南南東,2,南南東,6.9,96.7,0,0,0,4
187,2021-05-03T03:06:00,1.3,南南東,2,南南東,6.9,96.7,0,0,0,4
188,2021-05-03T03:07:00,1.2,南南東,1.9,南南東,6.9,96.6,0,0,0,4
189,2021-05-03T03:08:00,1.1,南南東,1.8,南南東,6.8,96.6,0,0,0,4
190,2021-05-03T03:09:00,1,南南東,1.8,南南東,6.9,96.7,0,0,0,4
191,2021-05-03T03:10:00,0.9,南南東,1.8,南南東,6.9,96.7,0,0,0,4
192,2021-05-03T03:11:00,0.8,南南東,1.6,南東,6.9,96.7,0,0,0,4
193,2021-05-03T03:12:00,0.8,南南東,1.4,南南東,6.9,96.7,0,0,0,4
194,2021-05-03T03:13:00,0.7,南南東,1.4,南南東,6.8,96.6,0,0,0,4
195,2021-05-03T03:14:00,0.7,南南東,1.3,南南東,6.8,96.6,0,0,0,4
196,2021-05-03T03:15:00,0.7,南南東,1.1,南南西,6.7,96.5,0,0,0,4
197,2021-05-03T03:16:00,0.7,南,1.3,南南西,6.7,96.5,0,0,0,4
198,2021-05-03T03:17:00,0.8,南,1.4,南南西,6.7,96.5,0,0,0,4
199,2021-05-03T03:18:00,0.9,南,1.4,南南西,6.7,96.5,0,0,0,4
200,2021-05-03T03:19:00,1,南南西,1.4,南南西,6.6,96.5,0,0,0,4
201,2021-05-03T03:20:00,1.1,南南西,1.6,南南西,6.6,96.5,0,0,0,4
202,2021-05-03T03:21:00,1.1,南南西,1.7,南南西,6.6,96.6,0,0,0,4
203,2021-05-03T03:22:00,1.2,南南西,1.7,南南西,6.6,96.6,0,0,0,4
204,2021-05-03T03:23:00,1.3,南南西,1.9,南南西,6.6,96.6,0,0,0,4
205,2021-05-03T03:24:00,1.4,南南西,2.1,南南西,6.7,96.8,0,0,0,4
206,2021-05-03T03:25:00,1.5,南南西,2.1,南南西,6.7,96.9,0,0,0,4
207,2021-05-03T03:26:00,1.6,南南西,2.1,南南西,6.8,96.9,0,0,0,4
208,2021-05-03T03:27:00,1.6,南南西,2.1,南南西,6.7,96.9,0,0,0,4
209,2021-05-03T03:28:00,1.6,南南西,2.1,南南西,6.7,96.7,0,0,0,4
210,2021-05-03T03:29:00,1.7,南南西,2.1,南南西,6.7,96.7,0,0,0,4
211,2021-05-03T03:30:00,1.7,南南西,2.1,南南西,6.7,96.7,0,0,0,4
212,2021-05-03T03:31:00,1.8,南南西,2.1,南南西,6.7,96.7,0,0,0,4
213,2021-05-03T03:32:00,1.8,南南西,2.3,南,6.7,96.7,0,0,0,4
214,2021-05-03T03:33:00,1.8,南,2.4,南,6.6,96.7,0,0,0,4
215,2021-05-03T03:34:00,1.9,南,2.9,南南西,6.6,96.7,0,0,0,4
216,2021-05-03T03:35:00,1.9,南,2.9,南南西,6.7,96.8,0,0,0,4
217,2021-05-03T03:36:00,1.9,南,2.9,南南西,6.7,96.9,0,0,0,4
218,2021-05-03T03:37:00,2,南,2.9,南南西,6.7,97,0,0,0,4
219,2021-05-03T03:38:00,2,南,2.9,南南西,6.7,96.8,0,0,0,4
220,2021-05-03T03:39:00,2,南,2.9,南南西,6.7,96.8,0,0,0,4
221,2021-05-03T03:40:00,2,南,2.9,南南西,6.7,96.8,0,0,0,4
222,2021-05-03T03:41:00,1.9,南,2.9,南南西,6.7,96.7,0,0,0,4
223,2021-05-03T03:42:00,1.8,南,2.9,南南西,6.7,96.8,0,0,0,4
224,2021-05-03T03:43:00,1.8,南,2.9,南南西,6.7,96.8,0,0,0,4
225,2021-05-03T03:44:00,1.7,南,2.7,南,6.7,96.7,0,0,0,4
226,2021-05-03T03:45:00,1.6,南,2.6,南,6.8,96.9,0,0,0,4
227,2021-05-03T03:46:00,1.5,南,2.6,南,6.7,96.8,0,0,0,4
228,2021-05-03T03:47:00,1.4,南,2.2,南南西,6.7,96.7,0,0,0,4
229,2021-05-03T03:48:00,1.2,南,2.2,南南西,6.6,96.7,0,0,0,4
230,2021-05-03T03:49:00,1.2,南,2.1,南,6.6,96.7,0,0,0,4
231,2021-05-03T03:50:00,1.1,南,2.1,南,6.6,96.8,0,0,0,4
232,2021-05-03T03:51:00,1.2,南,2.1,南,6.7,96.8,0,0,0,4
233,2021-05-03T03:52:00,1.2,南,2.1,南,6.6,96.8,0,0,0,4
234,2021-05-03T03:53:00,1.2,南,2.2,南南西,6.5,96.7,0,0,0,4
235,2021-05-03T03:54:00,1.3,南,2.2,南南西,6.5,96.5,0,0,0,4
236,2021-05-03T03:55:00,1.3,南,2.2,南南西,6.5,96.6,0,0,0,4
237,2021-05-03T03:56:00,1.4,南,2.3,南,6.5,96.7,0,0,0,4
238,2021-05-03T03:57:00,1.5,南南西,2.7,南西,6.5,96.7,0,0,0,4
239,2021-05-03T03:58:00,1.7,南南西,2.9,南南西,6.5,96.8,0,0,0,4
240,2021-05-03T03:59:00,1.9,南南西,2.9,南南西,6.5,96.8,0,0,0,4
241,2021-05-03T04:00:00,2,南南西,2.9,南南西,6.5,96.8,0,0,0,4
242,2021-05-03T04:01:00,2.1,南南西,3.1,南南西,6.5,96.8,0,0,0,4
243,2021-05-03T04:02:00,2.2,南南西,3.1,南南西,6.5,96.9,0,0,0,4
244,2021-05-03T04:03:00,2.2,南南西,3.1,南南西,6.5,96.9,0,0,0,4
245,2021-05-03T04:04:00,2.2,南南西,3.1,南南西,6.5,96.8,0,0,0,4
246,2021-05-03T04:05:00,2.2,南南西,3.1,南南西,6.6,96.9,0,0,0,4
247,2021-05-03T04:06:00,2.2,南南西,3.1,南南西,6.5,96.8,0,0,0,4
248,2021-05-03T04:07:00,2.2,南南西,3.1,南南西,6.5,96.8,0,0,0,4
249,2021-05-03T04:08:00,2.1,南,3.1,南南西,6.4,96.7,0,0,0,4
250,2021-05-03T04:09:00,2.1,南,3.1,南南西,6.4,96.7,0,0,0,4
251,2021-05-03T04:10:00,2,南,3.1,南南西,6.5,96.8,0,0,0,4
252,2021-05-03T04:11:00,1.9,南,2.8,南,6.5,96.9,0,0,0,4
253,2021-05-03T04:12:00,1.7,南,2.5,南,6.4,96.7,0,0,0,4
254,2021-05-03T04:13:00,1.7,南,2.4,南南西,6.4,96.7,0,0,0,4
255,2021-05-03T04:14:00,1.6,南,2.3,南,6.4,96.8,0,0,0,4
256,2021-05-03T04:15:00,1.5,南,2.2,南,6.4,96.8,0,0,0,4
257,2021-05-03T04:16:00,1.4,南,2.2,南,6.4,96.8,0,0,0,4
258,2021-05-03T04:17:00,1.4,南,2,南,6.3,96.8,0,0,0,4
259,2021-05-03T04:18:00,1.3,南,2,南,6.3,96.7,0,0,0,4
260,2021-05-03T04:19:00,1.3,南,1.7,南,6.3,96.7,0,0,0,4
261,2021-05-03T04:20:00,1.2,南,1.6,南,6.3,96.8,0,0,0,4
262,2021-05-03T04:21:00,1.2,南,1.6,南,6.3,96.9,0,0,0,4
263,2021-05-03T04:22:00,1.3,南,1.7,南,6.3,96.8,0,0,0,4
264,2021-05-03T04:23:00,1.3,南,1.8,南,6.3,96.8,0,0,0,4
265,2021-05-03T04:24:00,1.3,南,1.8,南,6.3,96.9,0,0,0,4
266,2021-05-03T04:25:00,1.4,南,1.9,南南西,6.3,96.8,0,0,0,4
267,2021-05-03T04:26:00,1.5,南,2,南南西,6.3,96.8,0,0,0,4
268,2021-05-03T04:27:00,1.5,南,2,南南西,6.3,96.9,0,0,0,4
269,2021-05-03T04:28:00,1.6,南,2,南南西,6.3,96.8,0,0,0,4
270,2021-05-03T04:29:00,1.7,南,2.1,南南西,6.3,96.9,0,0,0,4
271,2021-05-03T04:30:00,1.7,南,2.3,南南西,6.3,96.8,0,0,0,4
272,2021-05-03T04:31:00,1.8,南,2.3,南南西,6.3,97,0,0,0,4
273,2021-05-03T04:32:00,1.8,南,2.3,南南西,6.3,96.9,0,0,0,4
274,2021-05-03T04:33:00,1.8,南南西,2.3,南南西,6.3,96.9,0,0,0,4
275,2021-05-03T04:34:00,1.9,南南西,2.3,南南西,6.3,96.9,0,0,0,4
276,2021-05-03T04:35:00,1.9,南南西,2.4,南,6.3,96.9,0,0,0,4
277,2021-05-03T04:36:00,2,南南西,2.4,南,6.3,96.9,0,0,0,4
278,2021-05-03T04:37:00,2,南南西,2.4,南,6.3,97,0,0,0,4
279,2021-05-03T04:38:00,2,南南西,2.4,南,6.3,97,0,0,0,4
280,2021-05-03T04:39:00,1.9,南,2.4,南,6.3,96.9,0,0,0,4
281,2021-05-03T04:40:00,1.9,南,2.4,南,6.3,96.9,0,0,0,4
282,2021-05-03T04:41:00,1.8,南,2.4,南,6.3,96.9,0,0,0,4
283,2021-05-03T04:42:00,1.8,南,2.4,南,6.2,96.8,0,0,0,4
284,2021-05-03T04:43:00,1.7,南,2.4,南,6.2,96.8,0,0,0,4
285,2021-05-03T04:44:00,1.5,南,2.4,南,6.2,96.8,0,0,0,4
286,2021-05-03T04:45:00,1.4,南,2.3,南,6.2,96.9,0,0,0,4
287,2021-05-03T04:46:00,1.3,南,2.1,南南西,6.2,96.9,0,0,0,4
288,2021-05-03T04:47:00,1.3,南南東,2,南,6.2,96.9,0,0,0,4
289,2021-05-03T04:48:00,1.3,南南東,1.9,南,6.2,96.9,0,0,0,4
290,2021-05-03T04:49:00,1.3,南南東,1.9,南,6.1,96.9,0,0,0,4
291,2021-05-03T04:50:00,1.2,南南東,1.8,南南東,6.2,96.9,0,0,0,4
292,2021-05-03T04:51:00,1.3,南南東,1.8,南南東,6.1,96.9,0,0,0,4
293,2021-05-03T04:52:00,1.4,南南東,1.9,南南東,6.1,96.8,0,0,0,4
294,2021-05-03T04:53:00,1.4,南南東,1.9,南南東,6,96.8,0,0,0,4
295,2021-05-03T04:54:00,1.5,南東,2,南南東,6,96.8,0,0,0,4
296,2021-05-03T04:55:00,1.6,南南東,2,南南東,6,96.8,0,0,0,4
297,2021-05-03T04:56:00,1.6,南南東,2,南南東,6,96.8,0,0,0,4
298,2021-05-03T04:57:00,1.7,南南東,2.2,南東,6,96.9,0,0,0,4
299,2021-05-03T04:58:00,1.8,南南東,2.3,南南東,6,96.9,0,0,0,4
300,2021-05-03T04:59:00,1.8,南南東,2.3,南南東,6.1,97,0,0,0,4
301,2021-05-03T05:00:00,1.9,南南東,2.3,南南東,6.1,97.1,0,0,0,4
302,2021-05-03T05:01:00,1.8,南南東,2.3,南南東,6.1,97,0,0,0,4
303,2021-05-03T05:02:00,1.8,南南東,2.3,南南東,6,97,0,0,0,4
304,2021-05-03T05:03:00,1.8,南南東,2.3,南南東,6,96.9,0,0,0,4
305,2021-05-03T05:04:00,1.8,南南東,2.3,南南東,6,96.9,0,0,0,4
306,2021-05-03T05:05:00,1.9,南南東,2.3,南南東,6,97,0,0,0,4
307,2021-05-03T05:06:00,1.8,南南東,2.3,南南東,6.1,97,0,0,0,4
308,2021-05-03T05:07:00,1.8,南南東,2.3,南南東,6,97,0,0,0,4
309,2021-05-03T05:08:00,1.8,南南東,2.4,南南東,6.1,97,0,0,0,4
310,2021-05-03T05:09:00,1.8,南南東,2.4,南南東,6.1,97,0,0,0,4
311,2021-05-03T05:10:00,1.8,南南東,2.4,南南東,6.1,97,0,0,0,4
312,2021-05-03T05:11:00,1.8,南南東,2.4,南南東,6,97,0,0,0,4
313,2021-05-03T05:12:00,1.8,南南東,2.6,南東,6,97,0,0,0,4
314,2021-05-03T05:13:00,1.8,南南東,2.6,南東,6,97,0,0,0,4
315,2021-05-03T05:14:00,1.8,南南東,2.6,南東,6,96.9,0,0,0,4
316,2021-05-03T05:15:00,1.8,南南東,2.6,南東,6,96.9,0,0,0,4
317,2021-05-03T05:16:00,1.8,南南東,2.6,南東,6,96.9,0,0,0,4
318,2021-05-03T05:17:00,1.7,南南東,2.6,南東,6,97,0,0,0,4
319,2021-05-03T05:18:00,1.7,南南東,2.6,南東,6,97,0,0,0,4
320,2021-05-03T05:19:00,1.7,南南東,2.6,南東,6,97,0,0,0,4
321,2021-05-03T05:20:00,1.6,南南東,2.6,南東,6,97,0,0,0,4
322,2021-05-03T05:21:00,1.6,南南東,2.6,南東,6,97,0,0,0,4
323,2021-05-03T05:22:00,1.6,南南東,2.3,南東,5.9,97,0,0,0,4
324,2021-05-03T05:23:00,1.6,南南東,2.3,南東,5.9,97,0,0,0,4
325,2021-05-03T05:24:00,1.5,南南東,2.1,南南東,5.9,97,0,0,0,4
326,2021-05-03T05:25:00,1.5,南南東,2.1,南南東,5.9,97,0,0,0,4
327,2021-05-03T05:26:00,1.5,南南東,2.1,南南東,5.9,97,0,0,0,4
328,2021-05-03T05:27:00,1.4,南南東,2.1,南南東,5.9,97,0,0,0,4
329,2021-05-03T05:28:00,1.4,南南東,2.1,南南東,5.9,97,0,0,0,4
330,2021-05-03T05:29:00,1.4,南,2.1,南南東,6,97.1,0,0,0,4
331,2021-05-03T05:30:00,1.4,南,2.1,南南東,5.9,97.1,0,0,0,4
332,2021-05-03T05:31:00,1.4,南,2.1,南南東,6,97.1,0,0,0,4
333,2021-05-03T05:32:00,1.3,南,1.8,南西,5.9,97.1,0,0,0,4
334,2021-05-03T05:33:00,1.3,南,1.8,南西,5.9,97,0,0,0,4
335,2021-05-03T05:34:00,1.3,南南西,1.8,南西,5.9,97,0,0,0,4
336,2021-05-03T05:35:00,1.3,南南西,1.8,南西,5.8,97,0,0,0,4
337,2021-05-03T05:36:00,1.3,南南西,1.8,南西,5.8,97,0,0,0,4
338,2021-05-03T05:37:00,1.3,南南西,1.8,南西,5.9,97.1,0,0,0,4
339,2021-05-03T05:38:00,1.3,南南西,1.8,南西,5.8,97,0,0,0,4
340,2021-05-03T05:39:00,1.2,南南西,1.8,南西,5.8,97,0,0,0,4
341,2021-05-03T05:40:00,1.2,南南西,1.8,南西,5.8,97.1,0,0,0,4
342,2021-05-03T05:41:00,1.1,南南西,1.8,南西,5.8,97.1,0,0,0,4
343,2021-05-03T05:42:00,1,南南西,1.7,南西,5.8,97.1,0,0,0,4
344,2021-05-03T05:43:00,1,南南西,1.6,南西,5.9,97.1,0,0,0,4
345,2021-05-03T05:44:00,0.9,南南西,1.5,南南西,5.8,97.2,0,0,0,4
346,2021-05-03T05:45:00,0.9,南,1.4,南西,5.8,97.2,0,0,0,4
347,2021-05-03T05:46:00,0.8,南,1.3,南,5.8,97.1,0,0,0,4
348,2021-05-03T05:47:00,0.8,南,1.3,南,5.8,97.1,0,0,0,4
349,2021-05-03T05:48:00,0.9,南,1.5,南南西,5.9,97.2,0,0,0,4
350,2021-05-03T05:49:00,0.9,南,1.6,南南西,5.8,97.2,0,0,0,4
351,2021-05-03T05:50:00,0.9,南,2.1,南,5.8,97.1,0,0,0,4
352,2021-05-03T05:51:00,1,南,2.1,南,5.8,97.1,0,0,0,4
353,2021-05-03T05:52:00,1.1,南,2.1,南,5.8,97.1,0,0,0,4
354,2021-05-03T05:53:00,1.2,南,2.1,南,5.8,97.1,0,0,0,4
355,2021-05-03T05:54:00,1.3,南南西,2.1,南,5.8,97.2,0,0,0,4
356,2021-05-03T05:55:00,1.4,南南西,2.1,南,5.8,97.2,0,0,0,4
357,2021-05-03T05:56:00,1.5,南南西,2.2,南南西,5.8,97.2,0,0,0,4
358,2021-05-03T05:57:00,1.6,南南西,2.3,南南西,5.9,97.3,0,0,0,4
359,2021-05-03T05:58:00,1.7,南南西,2.3,南南西,5.9,97.3,0,0,0,4
360,2021-05-03T05:59:00,1.8,南南西,2.8,南南西,5.9,97.3,0,0,0,4
361,2021-05-03T06:00:00,1.9,南南西,2.8,南南西,5.9,97.3,0,0,0,4
362,2021-05-03T06:01:00,1.9,南南西,2.8,南南西,5.9,97.3,0,0,0,4
363,2021-05-03T06:02:00,2,南南西,2.8,南南西,5.9,97.3,0,0,0,4
364,2021-05-03T06:03:00,2,南南西,2.8,南南西,5.9,97.3,0,0,0,4
365,2021-05-03T06:04:00,2,南南西,2.8,南南西,6,97.3,0,0,0,4
366,2021-05-03T06:05:00,2.1,南南西,2.8,南南西,5.9,97.3,0,0,0,4
367,2021-05-03T06:06:00,2.1,南南西,2.8,南南西,6,97.3,0,0,0,4
368,2021-05-03T06:07:00,2,南南西,2.8,南南西,6,97.3,0,0,0,4
369,2021-05-03T06:08:00,2,南南西,2.8,南南西,6.1,97.4,0,0,0,4
370,2021-05-03T06:09:00,1.9,南南西,2.7,南南西,6.1,97.4,0,0,0,4
371,2021-05-03T06:10:00,1.8,南南西,2.4,南南西,6.2,97.4,0,0,0,4
372,2021-05-03T06:11:00,1.7,南南西,2.4,南南西,6.1,97.4,0,0,0,4
373,2021-05-03T06:12:00,1.6,南南西,2.3,南南西,6.1,97.4,0,0,0,4
374,2021-05-03T06:13:00,1.6,南南西,2.3,南南西,6.2,97.3,0,0,0,4
375,2021-05-03T06:14:00,1.6,南南西,2.3,南南西,6.3,97.5,0,0,0,4
376,2021-05-03T06:15:00,1.5,南南西,2.1,南南西,6.3,97.4,0,0,0,4
377,2021-05-03T06:16:00,1.5,南南西,2.1,南南西,6.4,97.5,0,0,0,4
378,2021-05-03T06:17:00,1.5,南南西,2.1,南南西,6.5,97.5,0,0,0,4
379,2021-05-03T06:18:00,1.5,南南西,2.3,南,6.4,97.4,0,0,0,4
380,2021-05-03T06:19:00,1.5,南南西,2.3,南,6.3,97.2,0,0,0,4
381,2021-05-03T06:20:00,1.6,南南西,2.3,南,6.3,97.1,0,0,0,4
382,2021-05-03T06:21:00,1.6,南南西,2.3,南,6.3,97.2,0,0,0,4
383,2021-05-03T06:22:00,1.6,南,2.3,南,6.3,97.2,0,0,0,4
384,2021-05-03T06:23:00,1.5,南,2.3,南,6.3,97.1,0,0,0,4
385,2021-05-03T06:24:00,1.5,南,2.3,南,6.4,97.1,0,0,0,4
386,2021-05-03T06:25:00,1.5,南,2.3,南,6.5,97.3,0,0,0,4
387,2021-05-03T06:26:00,1.5,南,2.3,南,6.5,97.5,0,0,0,4
388,2021-05-03T06:27:00,1.6,南,2.3,南,6.5,97.3,0,0,0,4
389,2021-05-03T06:28:00,1.6,南,2.3,南南西,6.5,97.2,0,0,0,4
390,2021-05-03T06:29:00,1.5,南,2.1,南,6.5,97.2,0,0,0,4
391,2021-05-03T06:30:00,1.5,南,2.3,南南西,6.7,97.3,0,0,0,4
392,2021-05-03T06:31:00,1.6,南南西,2.4,南南西,6.6,97.4,0,0,0,4
393,2021-05-03T06:32:00,1.6,南南西,2.4,南南西,6.6,97.2,0,0,0,4
394,2021-05-03T06:33:00,1.6,南南西,2.4,南南西,6.8,97.4,0,0,0,4
395,2021-05-03T06:34:00,1.6,南南西,2.4,南南西,6.8,97.4,0,0,0,4
396,2021-05-03T06:35:00,1.7,南南西,2.6,南南西,6.8,97.3,0,0,0,4
397,2021-05-03T06:36:00,1.7,南南西,2.6,南南西,6.9,97.2,0,0,0,4
398,2021-05-03T06:37:00,1.6,南南西,2.6,南南西,6.9,97.4,0,0,0,4
399,2021-05-03T06:38:00,1.6,南南西,2.6,南南西,6.8,97.2,0,0,0,4
400,2021-05-03T06:39:00,1.6,南,2.6,南南西,6.8,97,0,0,0,4
401,2021-05-03T06:40:00,1.6,南,2.6,南南西,6.8,97.1,0,0,0,4
402,2021-05-03T06:41:00,1.5,南,2.6,南南西,6.8,97,0,0,0,4
403,2021-05-03T06:42:00,1.5,南,2.6,南南西,6.9,97.1,0,0,0,4
404,2021-05-03T06:43:00,1.5,南,2.6,南南西,7.1,97.2,0,0,0,4
405,2021-05-03T06:44:00,1.5,南,2.6,南南西,7.2,97.4,0,0,0,4
406,2021-05-03T06:45:00,1.4,南,2.2,南南西,7.2,97.3,0,0,0,4
407,2021-05-03T06:46:00,1.3,南,2.1,南,7.4,97.4,0,0,0,4
408,2021-05-03T06:47:00,1.3,南,2.1,南,7.3,97.4,0,0,0,4
409,2021-05-03T06:48:00,1.3,南,2.1,南,7.2,97,0,0,0,4
410,2021-05-03T06:49:00,1.3,南,2.1,南,7.3,96.9,0,0,0,4
411,2021-05-03T06:50:00,1.3,南,2.1,南,7.3,97.1,0,0,0,4
412,2021-05-03T06:51:00,1.3,南,2.1,南,7.3,96.9,0,0,0,4
413,2021-05-03T06:52:00,1.2,南,2,南南西,7.3,96.8,0,0,0,4
414,2021-05-03T06:53:00,1.2,南,2,南南西,7.8,97.2,0,0,0,4
415,2021-05-03T06:54:00,1.2,南,2,南南西,7.7,97.3,0,0,0,4
416,2021-05-03T06:55:00,1.2,南,2,南南西,7.5,96.8,0,0,0,4
417,2021-05-03T06:56:00,1.2,南,2,南南西,7.6,96.7,0,0,0,4
418,2021-05-03T06:57:00,1.2,南,2,南南西,7.5,96.5,0,0,0,4
419,2021-05-03T06:58:00,1.2,南,1.8,南南東,7.5,96.4,0,0,0,4
420,2021-05-03T06:59:00,1.2,南南東,2,南東,7.6,96.4,0,0,0,4
421,2021-05-03T07:00:00,1.2,南南東,2,南東,7.6,96.6,0,0,0,4
422,2021-05-03T07:01:00,1.2,南南東,2,南東,7.7,96.6,0,0,0,4
423,2021-05-03T07:02:00,1.1,南南東,2,南東,7.9,96.6,0,0,0,4
424,2021-05-03T07:03:00,1.1,南南東,2,南東,8.3,96.9,0,0,0,4
425,2021-05-03T07:04:00,1.1,南東,2,南東,8.2,96.6,0,0,0,4
426,2021-05-03T07:05:00,1.1,南東,2,南東,8.2,96.3,0,0,0,4
427,2021-05-03T07:06:00,1.1,南東,2,南東,8.3,96.1,0,0,0,4
428,2021-05-03T07:07:00,1,南東,2,南東,8.5,96.2,0,0,0,4
429,2021-05-03T07:08:00,1,東南東,2,南東,8.3,95.7,0,0,0,4
430,2021-05-03T07:09:00,1,東南東,1.6,東南東,8.2,95.1,0,0,0,4
431,2021-05-03T07:10:00,1.1,東南東,1.8,東南東,8.3,94.9,0,0,0,4
432,2021-05-03T07:11:00,1.1,東南東,1.8,東南東,8.3,94.8,0,0,0,4
433,2021-05-03T07:12:00,1.1,東南東,1.8,東南東,8.3,94.2,0,0,0,4
434,2021-05-03T07:13:00,1.1,東南東,1.8,東南東,8.4,94.1,0,0,0,4
435,2021-05-03T07:14:00,1.1,東南東,1.8,東南東,8.5,93.8,0,0,0,4
436,2021-05-03T07:15:00,1.1,南東,1.8,東南東,8.4,93,0,0,0,4
437,2021-05-03T07:16:00,1.1,南東,1.8,東南東,8.4,92.5,0,0,0,4
438,2021-05-03T07:17:00,1.1,南東,1.8,東南東,8.5,92.1,0,0,0,4
439,2021-05-03T07:18:00,1,南東,1.8,東南東,8.9,93.7,0,0,0,4